Cloud_Cover
5 40 5 0 0 0 0 1 0 4 4 10 100 100 100 100 100 98 100 89 100 100 100 100 100 100 88 21 100 94 5 5 5 5 5 5 5 5 5 3 0 0 0 0 0 0 0 0 0
5 82 61 2 0 0 0 0 0 0 4 38 76 100 98 95 100 100 100 68 84 98 100 100 90 67 12 58 7 10 43 93 86 5 5 5 5 5 5 2 0 0 0 0 0 0 0 0 0
26 86 64 14 1 0 5 3 0 0 5 6 22 44 99 100 100 100 100 42 9 54 53 38 81 71 17 92 46 84 79 65 5 7 42 11 6 4 4 4 0 0 0 0 0 0 0 0 0
4 17 5 5 5 23 1 4 0 0 4 5 5 36 59 21 100 100 100 100 24 36 57 20 32 48 6 5 5 7 11 5 5 0 5 5 0 0 0 0 0 0 0 0 0 0 0 0 0
5 4 0 0 37 99 12 0 0 1 5 5 5 93 22 5 76 76 100 100 83 10 5 30 13 7 12 26 14 6 5 5 0 5 5 5 0 0 0 0 0 0 0 0 0 0 0 0 0
95 28 0 0 4 100 100 42 0 4 5 27 3 5 85 20 39 14 30 70 84 53 5 4 12 5 5 5 5 5 5 3 6 36 2 0 4 0 0 0 0 0 0 0 0 0 0 0 0
100 96 0 7 49 31 93 100 15 5 5 70 5 1 2 88 8 21 5 5 32 36 6 5 5 5 8 0 4 0 0 1 16 3 0 5 3 0 0 0 0 0 0 0 0 0 0 0 0
100 62 5 5 100 31 88 100 100 5 59 32 5 4 4 0 78 11 4 0 5 8 28 5 2 0 5 0 2 1 0 3 26 5 4 5 5 0 0 0 0 0 0 0 0 0 0 0 0
100 91 78 23 24 100 73 10 97 95 54 87 80 5 1 1 0 1 5 5 5 0 0 4 0 0 0 0 1 6 0 0 99 11 5 25 0 0 0 0 0 0 0 0 0 2 5 4 5
98 89 100 100 100 100 69 5 55 100 100 99 88 5 4 0 2 0 0 4 5 0 0 5 0 0 0 0 0 0 0 0 40 10 0 0 0 0 0 0 0 0 2 5 5 5 5 5 5
2 50 96 95 100 100 96 14 38 22 100 57 90 49 35 37 1 5 5 0 0 1 0 0 0 5 0 0 0 0 0 0 1 9 3 0 3 5 4 5 4 5 5 5 5 5 5 5 5
0 0 5 66 27 100 100 98 74 62 54 100 100 91 100 44 4 71 65 20 5 5 1 0 0 0 0 0 0 0 0 0 0 4 5 5 5 5 5 5 5 5 5 5 5 5 5 5 5
0 0 0 2 17 100 100 24 67 89 97 86 100 100 100 83 5 31 99 91 5 5 5 5 1 0 0 0 0 0 1 1 0 0 0 0 0 0 3 5 5 5 5 5 5 5 5 5 5
0 0 0 0 0 3 10 16 5 98 100 83 76 100 100 97 86 5 82 92 92 5 32 13 5 5 4 5 5 5 3 0 0 0 0 0 0 0 0 0 4 5 4 4 5 28 51 84 76
0 0 0 0 0 0 0 1 0 85 100 100 76 100 100 100 100 83 5 54 17 19 5 72 5 5 5 5 5 5 0 0 0 0 0 9 6 2 0 0 0 0 5 3 0 3 5 5 5
4 0 0 0 0 0 0 0 0 3 2 75 100 100 95 100 100 100 81 97 100 66 12 26 5 5 5 1 5 5 5 2 0 0 0 13 11 1 5 0 1 4 12 23 26 10 11 9 5
5 0 0 0 0 0 0 0 0 10 16 1 86 100 100 100 100 100 100 99 100 100 46 12 5 5 5 5 5 5 9 4 4 20 0 2 5 38 0 58 59 52 30 51 52 33 29 59 10
4 0 0 0 0 0 0 0 0 5 80 3 2 8 100 100 100 100 100 100 100 100 86 44 37 29 31 5 11 6 7 17 24 37 12 7 84 41 59 27 72 82 29 5 51 23 48 34 51
6 5 0 0 0 0 0 0 0 0 0 0 0 0 26 94 100 100 100 100 100 100 100 100 100 96 71 50 65 76 19 18 12 37 30 14 20 69 100 44 74 86 61 46 64 22 59 62 0
0 13 4 0 3 50 0 1 0 0 0 0 0 0 1 5 100 100 100 100 100 100 100 100 81 100 94 62 36 94 95 76 5 17 28 40 51 59 66 96 100 100 28 70 5 55 95 57 5
0 4 49 2 45 0 11 8 1 0 0 0 0 0 0 0 100 100 100 100 100 100 100 100 100 100 100 100 100 100 95 20 6 6 37 95 88 47 99 100 100 95 95 21 5 3 95 12 3
4 0 4 5 51 98 3 100 0 4 0 0 0 0 0 5 86 100 100 100 100 100 100 100 100 100 100 100 100 100 100 65 43 99 100 100 98 100 100 100 100 89 6 4 9 6 43 5 0
3 5 5 5 100 62 100 52 100 0 0 0 0 0 2 8 99 100 100 100 100 100 100 100 100 100 100 46 3 6 25 20 93 100 97 62 31 11 98 71 9 5 5 4 5 97 96 3 1
2 4 2 47 100 100 77 100 100 11 12 18 0 0 3 25 95 100 100 100 100 100 100 100 100 100 100 94 19 6 28 98 100 75 64 5 10 5 4 5 40 3 4 1 61 100 15 5 1
0 4 3 33 100 100 100 100 100 94 2 5 0 4 1 8 98 100 100 100 100 100 100 100 100 100 100 73 100 100 100 73 8 13 9 5 4 3 0 0 5 4 4 74 34 5 6 11 1
5 56 98 100 100 100 89 98 100 13 4 0 0 7 78 25 89 100 100 100 100 100 100 100 100 100 100 92 100 100 100 62 74 45 90 59 12 2 3 5 2 19 27 2 5 77 20 0 0
100 86 98 99 97 100 100 76 62 2 0 0 5 3 94 95 64 100 100 100 100 100 100 100 100 91 38 93 95 90 91 100 100 99 100 25 5 82 98 11 5 3 0 3 5 1 0 0 0
100 80 48 35 100 100 100 100 100 3 0 0 0 0 65 65 27 95 100 100 99 97 100 100 100 100 95 56 100 100 96 5 55 100 100 51 5 14 47 6 10 0 4 5 2 0 0 0 0
100 100 94 100 100 100 100 100 77 75 0 0 0 0 3 5 4 100 71 94 100 100 100 87 100 100 100 100 90 79 84 33 55 81 30 11 56 15 5 5 2 0 0 0 0 30 15 6 0
100 100 100 44 62 74 89 100 100 96 5 0 0 0 0 3 5 13 100 100 100 100 100 91 7 9 96 100 100 35 86 26 5 6 5 68 49 6 10 1 0 4 1 1 0 5 34 51 17